This demonstration page uses our WeatherBlox Daily Observations layout. Learn more.

Left ArrowRight Arrow

39.95238, -75.16362

Hourly Observations for August 23, 2022

Temp ( °F °C ) Dew Point ( °F °C ) Humidity (%) Winds ( mph kmh ) Pressure ( in mb ) Visibility ( mi km ) Precip ( " mm )
12:54 am 00:54 Partly Cloudy 75 23.9 68 20 79 79 Calm 29.82 1010 10 16 0.00 0.00
1:54 am 01:54 Mostly Clear 75 23.9 69 20.6 82 82 W 5 7 29.81 1010 10 16 0.00 0.00
2:54 am 02:54 Mostly Clear 74 23.3 69 20.6 85 85 VRB 3 6 29.81 1009 10 16 0.00 0.00
3:28 am 03:28 Mostly Cloudy 73 22.8 69 20.6 87 87 NNE 5 7 29.81 1009 10 16 0.00 0.00
3:54 am 03:54 Cloudy 73 22.8 69 20.6 87 87 N 7 11 29.81 1010 10 16 0.00 0.00
4:54 am 04:54 Cloudy 72 22.2 68 20 87 87 N 7 11 29.80 1009 10 16 0.00 0.00
5:54 am 05:54 Mostly Cloudy 72 22.2 68 20 87 87 Calm 29.81 1010 10 16 0.00 0.00
6:00 am 06:00 Partly Cloudy 72 22.2 68 20 87 87 NNW 5 7 29.82 1010 10 16 0.00 0.00
6:54 am 06:54 Mostly Sunny 72 22.2 68 20 87 87 Calm 29.83 1010 10 16 0.00 0.00
7:43 am 07:43 Mostly Cloudy 73 22.8 70 21.1 90 90 Calm 29.84 1010 8 13 0.00 0.00
7:54 am 07:54 Mostly Cloudy 73 22.8 69 20.6 87 87 W 3 6 29.84 1011 9 14 0.00 0.00
8:10 am 08:10 Mostly Cloudy 74 23.3 69 20.6 85 85 WNW 3 6 29.84 1010 10 16 0.00 0.00
8:14 am 08:14 Partly Cloudy 74 23.3 69 20.6 85 85 NNW 3 6 29.84 1010 10 16 0.00 0.00
8:54 am 08:54 Partly Cloudy 76 24.4 68 20 77 77 NW 6 9 29.84 1011 10 16 0.00 0.00
9:20 am 09:20 Mostly Cloudy 76 24.4 68 20 77 77 NNW 6 9 29.85 1011 10 16 0.00 0.00
9:54 am 09:54 Mostly Cloudy 77 25 68 20 74 74 W 7 11 29.85 1011 10 16 0.00 0.00
10:48 am 10:48 Mostly Cloudy 79 26 68 20 70 70 WNW 6 9 29.86 1011 10 16 0.00 0.00
10:54 am 10:54 Mostly Cloudy 78 25.6 68 20 71 71 NW 3 6 29.85 1011 10 16 0.00 0.00
11:54 am 11:54 Mostly Cloudy 81 27.2 68 20 65 65 WSW 9 15 29.85 1011 10 16 0.00 0.00
12:10 pm 12:10 Partly Cloudy 81 27.2 68 20 65 65 SW 10 17 29.85 1011 10 16 0.00 0.00
12:54 pm 12:54 Partly Cloudy 83 28.3 67 19.4 59 59 SW 9 15 29.84 1011 10 16 0.00 0.00
1:54 pm 13:54 Partly Cloudy 85 29.4 67 19.4 55 55 W 16 26 29.84 1010 10 16 0.00 0.00
2:54 pm 14:54 Partly Cloudy 84 28.9 64 17.8 51 51 W 14 22 29.84 1011 10 16 0.00 0.00
3:54 pm 15:54 Partly Cloudy 85 29.4 64 17.8 50 50 W 9 15 29.83 1010 10 16 0.00 0.00
4:54 pm 16:54 Partly Cloudy 85 29.4 63 17.2 48 48 W 6 9 29.82 1010 10 16 0.00 0.00
5:54 pm 17:54 Partly Cloudy 86 30 64 17.8 48 48 WNW 10 17 29.83 1010 10 16 0.00 0.00
6:54 pm 18:54 Partly Cloudy 85 29.4 64 17.8 50 50 W 12 19 29.84 1010 10 16 0.00 0.00
7:54 pm 19:54 Partly Cloudy 84 28.9 64 17.8 51 51 W 12 19 29.86 1011 10 16 0.00 0.00
8:54 pm 20:54 Partly Cloudy 83 28.3 67 19.4 59 59 WSW 9 15 29.88 1012 10 16 0.00 0.00
9:54 pm 21:54 Mostly Cloudy 81 27.2 66 18.9 61 61 W 6 9 29.90 1013 10 16 0.00 0.00
10:54 pm 22:54 Mostly Clear 81 27.2 65 18.3 58 58 WNW 8 13 29.91 1013 10 16 0.00 0.00
11:54 pm 23:54 Mostly Clear 79 26.1 65 18.3 62 62 NW 7 11 29.92 1013 10 16 0.00 0.00

Powered by AerisWeather